{"data":{"norad_id":57874,"intl_designator":"2023-144L","name":"STARLINK-30447","alt_names":[],"object_type":"PAYLOAD","status":"ACTIVE","operator":null,"country":"US","launch_date":"2023-09-16","launch_site_code":"AFETR","launch_vehicle":null,"mission":null,"orbit_class":"UNKNOWN","rcs_meters":null,"size_class":null,"mass_kg":null,"dimensions":null,"purposes":["comms"],"wikipedia_slug":null,"has_3d_model":false,"image_url":null,"decayed_at":null,"tle_current":{"epoch":"2026-05-25T03:08:00.892032Z","epoch_age_seconds":64102,"freshness":"FRESH","line1":"1 57874U 23144L   26145.13056588  .00000238  00000+0  18182-4 0  9995","line2":"2 57874  43.0006 187.7562 0001325 267.8919  92.1781 15.27575326149628","mean_motion":15.27575326,"eccentricity":0.0001325,"inclination_deg":43.0006,"raan_deg":187.7562,"arg_perigee_deg":267.8919,"mean_anomaly_deg":92.1781,"bstar":1.8182e-5,"rev_number":14962,"period_min":94.267037146422,"perigee_km":482.15398270065,"apogee_km":483.97220072495,"semimajor_km":6861.2000917128,"source":"CELESTRAK","updated_at":"2026-05-25T13:38:18.448698Z"}}}